| time (UTC) | temp F | wind direction | speed MPH | gust MPH | rain 1hr in | rain 24hr in | rain mn in | humidity % | barometer mb |
| 20260831033046 | 56 | 273 | 7.0 | 11.0 | 0.00 | 0.17 | 0.07 | 50 | 1017.1 |
| 20260831031534 | 57 | 276 | 5.0 | 11.0 | 0.00 | 0.17 | 0.07 | 49 | 1016.6 |
| 20260831030046 | 58 | 274 | 7.0 | 12.0 | 0.00 | 0.17 | 0.07 | 47 | 1016.4 |
| 20260831024546 | 58 | 277 | 7.0 | 11.0 | 0.00 | 0.17 | 0.07 | 48 | 1016.1 |
| 20260831023040 | 60 | 301 | 5.0 | 17.0 | 0.00 | 0.17 | 0.07 | 45 | 1015.9 |
| 20260831021536 | 61 | 284 | 9.0 | 15.0 | 0.00 | 0.17 | 0.07 | 43 | 1015.4 |
| 20260831020036 | 62 | 271 | 12.0 | 21.0 | 0.00 | 0.17 | 0.07 | 40 | 1015.2 |
| 20260831014540 | 63 | 287 | 14.0 | 23.0 | 0.00 | 0.17 | 0.07 | 39 | 1015.0 |
| 20260831013035 | 64 | 261 | 14.0 | 21.0 | 0.00 | 0.17 | 0.07 | 38 | 1015.0 |
| 20260831011534 | 65 | 260 | 10.0 | 19.0 | 0.00 | 0.17 | 0.07 | 39 | 1015.3 |
| 20260831010036 | 65 | 273 | 13.0 | 20.0 | 0.00 | 0.17 | 0.07 | 37 | 1015.3 |
| 20260831004542 | 66 | 298 | 14.0 | 20.0 | 0.00 | 0.17 | 0.07 | 37 | 1015.3 |
| 20260831003036 | 66 | 273 | 11.0 | 22.0 | 0.00 | 0.17 | 0.07 | 38 | 1015.3 |
| 20260831001540 | 67 | 269 | 15.0 | 27.0 | 0.00 | 0.17 | 0.07 | 36 | 1015.2 |
| 20260831000037 | 67 | 278 | 17.0 | 28.0 | 0.00 | 0.17 | 0.07 | 35 | 1015.3 |
| 20260830234534 | 67 | 273 | 16.0 | 28.0 | 0.00 | 0.17 | 0.07 | 35 | 1015.2 |
| 20260830233038 | 67 | 221 | 14.0 | 26.0 | 0.00 | 0.17 | 0.07 | 36 | 1015.2 |
| 20260830231537 | 67 | 244 | 16.0 | 26.0 | 0.00 | 0.17 | 0.07 | 36 | 1015.1 |
| 20260830230036 | 65 | 274 | 19.0 | 31.0 | 0.00 | 0.17 | 0.07 | 37 | 1015.2 |
| 20260830224539 | 65 | 236 | 16.0 | 28.0 | 0.00 | 0.17 | 0.07 | 37 | 1015.2 |
| 20260830223037 | 67 | 251 | 14.0 | 30.0 | 0.00 | 0.17 | 0.07 | 36 | 1015.2 |
| 20260830221537 | 68 | 229 | 16.0 | 28.0 | 0.00 | 0.17 | 0.07 | 36 | 1015.2 |
| 20260830220038 | 68 | 264 | 18.0 | 29.0 | 0.00 | 0.17 | 0.07 | 37 | 1015.5 |
| 20260830214535 | 68 | 272 | 15.0 | 28.0 | 0.00 | 0.17 | 0.07 | 37 | 1015.5 |
| 20260830213033 | 66 | 253 | 18.0 | 28.0 | 0.00 | 0.17 | 0.07 | 39 | 1015.2 |
| 20260830211538 | 65 | 222 | 17.0 | 27.0 | 0.00 | 0.17 | 0.07 | 38 | 1015.5 |
| 20260830210040 | 65 | 234 | 15.0 | 26.0 | 0.00 | 0.17 | 0.07 | 38 | 1015.6 |
| 20260830204537 | 64 | 286 | 15.0 | 27.0 | 0.00 | 0.17 | 0.07 | 39 | 1015.6 |
| 20260830203034 | 64 | 254 | 11.0 | 24.0 | 0.00 | 0.17 | 0.07 | 40 | 1015.6 |
| 20260830201539 | 63 | 243 | 15.0 | 25.0 | 0.00 | 0.17 | 0.07 | 41 | 1015.6 |
| 20260830200039 | 63 | 227 | 16.0 | 28.0 | 0.00 | 0.17 | 0.07 | 41 | 1015.7 |
| 20260830194535 | 63 | 214 | 14.0 | 23.0 | 0.00 | 0.17 | 0.07 | 41 | 1015.6 |
| 20260830193037 | 63 | 231 | 10.0 | 24.0 | 0.00 | 0.17 | 0.07 | 42 | 1015.7 |
| 20260830191537 | 63 | 286 | 13.0 | 27.0 | 0.00 | 0.17 | 0.07 | 41 | 1015.8 |
| 20260830190039 | 64 | 234 | 13.0 | 27.0 | 0.00 | 0.17 | 0.07 | 40 | 1015.6 |
| 20260830184536 | 66 | 205 | 14.0 | 24.0 | 0.00 | 0.17 | 0.07 | 40 | 1015.6 |
| 20260830183042 | 65 | 235 | 11.0 | 23.0 | 0.00 | 0.17 | 0.07 | 41 | 1015.3 |
| 20260830181539 | 65 | 248 | 11.0 | 19.0 | 0.00 | 0.17 | 0.07 | 41 | 1015.5 |
| 20260830180039 | 64 | 238 | 11.0 | 19.0 | 0.00 | 0.17 | 0.07 | 40 | 1015.7 |
| 20260830174536 | 63 | 220 | 12.0 | 24.0 | 0.00 | 0.17 | 0.07 | 43 | 1015.8 |
| 20260830173036 | 63 | 201 | 13.0 | 25.0 | 0.00 | 0.17 | 0.07 | 43 | 1015.9 |
| 20260830171541 | 62 | 241 | 14.0 | 20.0 | 0.00 | 0.17 | 0.07 | 43 | 1015.9 |
| 20260830170036 | 62 | 241 | 15.0 | 23.0 | 0.00 | 0.17 | 0.07 | 44 | 1015.9 |
| 20260830164545 | 62 | 211 | 15.0 | 23.0 | 0.00 | 0.17 | 0.07 | 44 | 1015.9 |
| 20260830163047 | 61 | 279 | 12.0 | 23.0 | 0.00 | 0.17 | 0.07 | 46 | 1015.9 |
| 20260830161535 | 60 | 254 | 17.0 | 24.0 | 0.00 | 0.17 | 0.07 | 46 | 1015.8 |
| 20260830160052 | 60 | 225 | 14.0 | 23.0 | 0.00 | 0.17 | 0.07 | 48 | 1015.9 |
| 20260830154535 | 59 | 257 | 13.0 | 21.0 | 0.00 | 0.17 | 0.07 | 50 | 1016.0 |
| 20260830153039 | 59 | 259 | 10.0 | 19.0 | 0.00 | 0.17 | 0.07 | 52 | 1016.3 |
| 20260830151539 | 58 | 223 | 7.0 | 14.0 | 0.00 | 0.17 | 0.07 | 59 | 1016.3 |
| 20260830150035 | 57 | 193 | 8.0 | 13.0 | 0.00 | 0.17 | 0.07 | 63 | 1016.3 |
| 20260830144538 | 55 | 209 | 3.0 | 10.0 | 0.00 | 0.17 | 0.07 | 69 | 1016.3 |
| 20260830143040 | 54 | 194 | 6.0 | 13.0 | 0.00 | 0.17 | 0.07 | 71 | 1016.1 |
| 20260830141536 | 53 | 234 | 5.0 | 11.0 | 0.00 | 0.17 | 0.07 | 71 | 1016.1 |
| 20260830140044 | 53 | 253 | 7.0 | 12.0 | 0.00 | 0.17 | 0.07 | 71 | 1016.0 |
| 20260830134549 | 51 | 265 | 8.0 | 13.0 | 0.00 | 0.17 | 0.07 | 75 | 1015.8 |
| 20260830133041 | 50 | 301 | 3.0 | 8.0 | 0.00 | 0.17 | 0.07 | 80 | 1015.9 |
| 20260830131543 | 51 | 267 | 4.0 | 8.0 | 0.00 | 0.17 | 0.07 | 78 | 1015.6 |
| 20260830130049 | 51 | 0 | 0.0 | 5.0 | 0.00 | 0.17 | 0.07 | 81 | 1015.4 |
| 20260830124542 | 52 | 218 | 3.0 | 6.0 | 0.00 | 0.17 | 0.07 | 83 | 1015.4 |
| 20260830123044 | 52 | 218 | 3.0 | 10.0 | 0.00 | 0.17 | 0.07 | 84 | 1015.5 |
| 20260830121549 | 51 | 209 | 5.0 | 7.0 | 0.00 | 0.17 | 0.07 | 88 | 1015.3 |
| 20260830120036 | 51 | 212 | 3.0 | 5.0 | 0.00 | 0.17 | 0.07 | 87 | 1015.4 |
| 20260830114534 | 51 | 258 | 2.0 | 4.0 | 0.00 | 0.17 | 0.07 | 86 | 1015.5 |
| 20260830113036 | 52 | 258 | 2.0 | 5.0 | 0.00 | 0.17 | 0.07 | 84 | 1015.6 |
| 20260830111541 | 54 | 240 | 2.0 | 5.0 | 0.00 | 0.17 | 0.07 | 84 | 1015.5 |
| 20260830110037 | 54 | 240 | 2.0 | 8.0 | 0.00 | 0.17 | 0.07 | 86 | 1015.7 |
| 20260830104534 | 54 | 194 | 7.0 | 13.0 | 0.01 | 0.17 | 0.07 | 88 | 1015.5 |
| 20260830103041 | 54 | 144 | 4.0 | 10.0 | 0.01 | 0.17 | 0.07 | 88 | 1014.9 |
| 20260830101534 | 53 | 164 | 4.0 | 12.0 | 0.01 | 0.17 | 0.07 | 83 | 1015.3 |
| 20260830100040 | 54 | 171 | 9.0 | 14.0 | 0.01 | 0.17 | 0.07 | 79 | 1016.0 |
| 20260830094542 | 54 | 275 | 1.0 | 6.0 | 0.00 | 0.16 | 0.06 | 82 | 1015.5 |
| 20260830093036 | 54 | 275 | 1.0 | 4.0 | 0.00 | 0.16 | 0.06 | 84 | 1015.8 |
| 20260830091536 | 55 | 0 | 0.0 | 4.0 | 0.00 | 0.16 | 0.06 | 85 | 1015.3 |
| 20260830090050 | 55 | 275 | 7.0 | 11.0 | 0.00 | 0.16 | 0.06 | 87 | 1015.6 |
| 20260830084537 | 56 | 0 | 0.0 | 3.0 | 0.00 | 0.16 | 0.06 | 92 | 1015.7 |
| 20260830083036 | 56 | 284 | 1.0 | 4.0 | 0.00 | 0.16 | 0.06 | 92 | 1015.5 |
| 20260830081535 | 56 | 0 | 1.0 | 3.0 | 0.00 | 0.16 | 0.06 | 91 | 1015.6 |
| 20260830080039 | 56 | 0 | 0.0 | 3.0 | 0.02 | 0.16 | 0.06 | 91 | 1015.3 |
| 20260830074538 | 56 | 0 | 0.0 | 2.0 | 0.03 | 0.16 | 0.06 | 91 | 1015.0 |
| 20260830073047 | 56 | 284 | 3.0 | 8.0 | 0.03 | 0.16 | 0.06 | 91 | 1015.5 |
| 20260830071540 | 56 | 284 | 2.0 | 7.0 | 0.03 | 0.16 | 0.06 | 91 | 1015.8 |
| 20260830070040 | 56 | 268 | 6.0 | 14.0 | 0.04 | 0.14 | 0.04 | 91 | 1015.8 |
| 20260830064533 | 56 | 278 | 8.0 | 16.0 | 0.07 | 0.13 | 0.03 | 92 | 1015.4 |
| 20260830063036 | 56 | 66 | 5.0 | 11.0 | 0.12 | 0.13 | 0.03 | 91 | 1014.5 |
| 20260830061554 | 56 | 67 | 5.0 | 11.0 | 0.13 | 0.13 | 0.03 | 90 | 1014.9 |
| 20260830060039 | 56 | 122 | 4.0 | 10.0 | 0.10 | 0.10 | 0.00 | 87 | 1015.6 |
| 20260830054554 | 58 | 190 | 4.0 | 9.0 | 0.06 | 0.06 | 0.06 | 84 | 1015.9 |
| 20260830053039 | 58 | 186 | 8.0 | 11.0 | 0.01 | 0.01 | 0.01 | 82 | 1015.6 |
| 20260830051539 | 58 | 303 | 3.0 | 5.0 | 0.00 | 0.00 | 0.00 | 79 | 1014.8 |
| 20260830050036 | 58 | 303 | 5.0 | 7.0 | 0.00 | 0.00 | 0.00 | 78 | 1015.1 |
| 20260830044546 | 59 | 0 | 0.0 | 0.0 | 0.00 | 0.00 | 0.00 | 75 | 1015.0 |
| 20260830043043 | 59 | 0 | 0.0 | 3.0 | 0.00 | 0.00 | 0.00 | 73 | 1014.6 |
| 20260830041543 | 60 | 0 | 0.0 | 4.0 | 0.00 | 0.00 | 0.00 | 72 | 1014.9 |
| 20260830040036 | 60 | 0 | 1.0 | 2.0 | 0.00 | 0.00 | 0.00 | 72 | 1014.9 |
| 20260830034544 | 60 | 0 | 0.0 | 0.0 | 0.00 | 0.00 | 0.00 | 72 | 1015.1 |